User: anonymous   Login
Location: Notre Dame Regional High School Observatory
(37.3056°N, 89.6097°W)
Time: 10:36:04
(UTC-06:00)
Language:

ATLAS 3B R/B - Orbit

View from above orbital plane
View from above orbital plane
View from above satellite
View from above satellite

Ground track
Ground track

The orbit data is extracted from the following two-line orbital elements,

1 28538U 05004B   14351.23742617 0.00000080  00000-0  12351-3 0    07
2 28538  63.8180  78.6267 0205000 235.9242 124.0758 13.43043781    05
Epoch (UTC): 17 December 2014 05:41:53
Eccentricity: 0.0205000
inclination: 63.8180°
perigee height: 945 km
apogee height: 1251 km
right ascension of ascending node: 78.6267°
argument of perigee: 235.9242°
revolutions per day: 13.43043781
mean anomaly at epoch: 124.0758°
orbit number at epoch: 0

The dashed part of the orbit path shows where the satellite is in the earth's shadow,  

DLR